Greens Bayou, Texas
Current Conditions -  °F | °C
As of 5:50 AM on Tuesday 27 Jan 2015 (Local Time) from KEFD Reporting Station
Few Clouds Few Clouds  
Wind Chill: 50°   Ceiling: Unl
Heat Index: 50°   Visibility: 10mi
Dew Point: 43°   Wind: 5mph
Humidity: 76%   Direction: 250°WSW
Pressure: 30.13"   Gusts: NA
Location:  29.7654°N, 95.1705°W
Report Text: KEFD 271150Z 25004KT 10SM FEW250 10/06 A3013
Loading
Personal Weather Stations






























Interactive Weather Map New forecast layout! Learn more

10-Day Weather Forecast

Advertisements
Track Severe Weather on mobile